Location: Kaiser
(34.0939°N, 117.4889°W)
Time: 02:34:25
(UTC+00:00)

ERS-2 - Pass Details

Date: 29 October 2020
Orbit: 493 x 497 km, 98.6° (Epoch: 26 November)

Event Time Altitude Azimuth Distance (km) Brightness Sun altitude
Rises 13:37:14 0° 212° (SSW) 2,564 5.5 -6.9°
Reaches altitude 10° 13:40:57 10° 253° (WSW) 1,688 4.3 -6.2°
Maximum altitude 13:41:46 11° 266° (W) 1,652 4.1 -6.0°
Drops below altitude 10° 13:42:35 10° 279° (W) 1,690 4.1 -5.8°
Enters shadow 13:45:07 - 310° (NW) 2,204 4.8 -5.3°
